Regional Weather Roundup
Issued by NWS

Home | Current Version | Previous Version | Graphics & Text | Print | Product List | Glossary On
Versions: 1 2 3 4 5 6 7 8 9 10 11 12 13 14 15 16 17 18 19 20 21 22 23 24 25 26 27
000
ASUS45 KSLC 170810
RWRUT

UTAH REGIONAL WEATHER ROUNDUP
NATIONAL WEATHER SERVICE SALT LAKE CITY UT
200 AM MDT THU APR 17 2014

UTZ001>011-023>025-170900-

NORTHERN UTAH

CITY           SKY/WX    TMP DP  RH WIND       PRES   REMARKS
HILL AFB       CLEAR     41  13  31 E12       30.03F
LOGAN          CLEAR     33  24  69 NE3       30.04R
OGDEN          CLEAR     41  16  36 S8        30.03S
PROVO AIRPORT  PTCLDY    39  28  65 S3        30.05S
SALT LAKE CITY PTCLDY    41  18  39 SE7       30.02F
VERNAL         CLEAR     38  17  42 W6        30.02S WCI  33
WENDOVER       CLEAR     43  19  39 W3        30.02S
HEBER CITY     PTCLDY    30  18  59 CALM      30.06F
WEST JORDAN    CLEAR     36  21  55 S7        30.04S WCI  30

$$

UTZ012>022-026-027-170900-

SOUTHERN UTAH

CITY           SKY/WX    TMP DP  RH WIND       PRES   REMARKS
BRYCE CANYON   PTCLDY    25  19  78 W7        30.10S WCI  17
CEDAR CITY     CLEAR     34  20  56 VRB3      30.02R
MILFORD        PTCLDY    37  18  46 NW9       30.02R WCI  30
MOAB/CYNLANDS  CLEAR     45  19  35 CALM      29.97R
PRICE          CLEAR     44  14  29 NW10      30.03S
ST GEORGE      MOSUNNY   63  25  23 N7        29.93R
KANAB            N/A     46  23  39 NW12      30.04S

$$

REGIONAL REPORTS     COLORADO/ARIZONA

CITY           SKY/WX    TMP DP  RH WIND       PRES   REMARKS
CRAIG, CO      CLEAR     26  19  74 SW3       30.05R
GRAND JUNCTION CLEAR     39  22  50 E13       29.99R WCI  31
RIFLE          MOCLDY    35  23  61 NE5       30.03R WCI  31
MONTROSE       CLEAR     37  26  64 SE9       30.04S WCI  30
CORTEZ         CLEAR     29  20  69 E8        30.04R WCI  21
PAGE, AZ       NOT AVBL
GRAND CANYON   CLEAR     30  14  51 CALM      30.07R
KINGMAN        CLEAR     55  13  18 E3        29.89R
FLAGSTAFF      CLEAR     31  15  52 CALM      30.09R

$$

REGIONAL REPORTS    NEVADA/IDAHO/WYOMING

CITY           SKY/WX    TMP DP  RH WIND       PRES   REMARKS
LAS VEGAS, NV  PTCLDY    69  21  16 SW10      29.77R
ELY            PTCLDY    33  23  66 S9        30.07S WCI  25
ELKO           CLEAR     40  27  59 NE3       30.03R
POCATELLO, ID  CLEAR     38  14  37 S7        30.02S WCI  33
BURLEY         CLEAR     37  21  52 SW10      30.00S WCI  30
EVANSTON, WY   CLEAR     32  13  45 S6        30.06F WCI  26
ROCK SPRINGS   CLEAR     31  10  41 SW5       30.05F WCI  26

$$



USA.gov is the U.S. government's official web portal to all federal, state and local government web resources and services.